GW5618 Weather Reports


time (UTC)temp
F
wind
direction
speed
knots
gust
knots
rain 1hr
in
rain 24hr
in
rain mn
in
humidity
%
barometer
mb
20260505091417 50 171 3.5 6.1 0.00 0.00 0.00 95 1010.0
20260505090915 50 132 3.5 6.1 0.00 0.00 0.00 95 1010.2
20260505090413 50 157 2.6 5.2 0.00 0.00 0.00 95 1010.4
20260505085910 50 110 6.1 7.0 0.00 0.00 0.00 95 1010.4
20260505085408 50 135 2.6 5.2 0.00 0.00 0.00 95 1010.3
20260505084906 50 125 4.3 5.2 0.00 0.00 0.00 95 1010.4
20260505084404 50 113 6.1 6.1 0.00 0.00 0.00 94 1010.4
20260505083901 50 130 3.5 7.0 0.00 0.00 0.00 94 1010.3
20260505083359 50 136 2.6 7.0 0.00 0.00 0.00 94 1010.4
20260505082855 50 118 4.3 7.8 0.00 0.00 0.00 93 1010.2
20260505082351 50 134 3.5 5.2 0.00 0.00 0.00 93 1010.1
20260505081848 50 167 3.5 7.0 0.00 0.00 0.00 93 1010.3
20260505081345 50 141 1.7 7.0 0.00 0.00 0.00 93 1010.3
20260505080841 50 135 3.5 5.2 0.00 0.00 0.00 93 1010.2
20260505080337 50 125 3.5 7.0 0.00 0.00 0.00 93 1010.2
20260505075833 50 112 6.1 6.1 0.00 0.00 0.00 93 1010.3
20260505075330 50 244 1.7 4.3 0.00 0.00 0.00 93 1010.4
20260505074827 50 116 3.5 5.2 0.00 0.00 0.00 93 1010.5
20260505074324 50 111 5.2 5.2 0.00 0.00 0.00 92 1010.3
20260505073822 50 162 3.5 7.0 0.00 0.00 0.00 92 1010.4
20260505073320 50 110 5.2 5.2 0.00 0.00 0.00 92 1010.4
20260505072816 50 101 2.6 7.8 0.00 0.00 0.00 92 1010.5
20260505072312 50 131 1.7 5.2 0.00 0.00 0.00 92 1010.4
20260505071808 50 136 1.7 4.3 0.00 0.00 0.00 91 1010.3
20260505071305 50 116 3.5 6.1 0.00 0.00 0.00 91 1010.4
20260505070803 50 137 3.5 4.3 0.00 0.00 0.00 91 1010.4
20260505070259 51 117 2.6 4.3 0.00 0.00 0.00 90 1010.4
20260505065754 51 128 2.6 5.2 0.00 0.00 0.00 90 1010.6
20260505065252 51 171 2.6 7.0 0.00 0.00 0.00 90 1010.3
20260505064749 51 110 4.3 6.1 0.00 0.00 0.00 89 1010.5
20260505064246 51 137 3.5 7.0 0.00 0.00 0.00 89 1010.6
20260505063744 51 204 1.7 6.1 0.00 0.00 0.00 89 1010.6
20260505063240 51 101 2.6 5.2 0.00 0.00 0.00 88 1010.6
20260505062736 51 127 3.5 7.8 0.00 0.00 0.00 89 1010.5
20260505062234 51 108 1.7 6.1 0.00 0.00 0.00 88 1010.5
20260505061731 51 122 1.7 5.2 0.00 0.00 0.00 88 1010.6
20260505061229 51 111 1.7 6.1 0.00 0.00 0.00 87 1010.6
20260505060726 51 116 4.3 6.1 0.00 0.00 0.00 87 1010.7
20260505060223 51 82 2.6 3.5 0.00 0.00 0.00 87 1010.5
20260505055718 51 156 0.0 4.3 0.00 0.00 0.00 87 1010.3
20260505055215 51 143 3.5 4.3 0.00 0.00 0.00 87 1010.6
20260505054712 52 152 3.5 5.2 0.00 0.00 0.00 86 1010.5
20260505054210 51 162 4.3 9.6 0.00 0.00 0.00 86 1010.6
20260505053708 52 214 4.3 8.7 0.00 0.00 0.00 86 1010.6
20260505053204 52 283 3.5 7.8 0.00 0.00 0.00 86 1010.5
20260505052701 52 145 2.6 6.1 0.00 0.00 0.00 85 1010.4
20260505052158 52 199 3.5 7.0 0.00 0.00 0.00 85 1010.6
20260505051655 52 119 3.5 8.7 0.00 0.00 0.00 85 1010.5
20260505051153 52 173 3.5 5.2 0.00 0.00 0.00 84 1010.6
20260505050651 52 144 5.2 6.1 0.00 0.00 0.00 84 1010.5
20260505050144 52 159 4.3 7.0 0.00 0.00 0.00 84 1010.6
20260505041619 52 276 1.7 7.8 0.00 0.00 0.00 82 1010.5
20260505041116 53 158 1.7 4.3 0.00 0.00 0.00 82 1010.6
20260505040613 53 231 7.0 7.8 0.00 0.00 0.00 82 1010.6
20260505040110 53 171 1.7 5.2 0.00 0.00 0.00 81 1010.7
20260505035606 53 118 1.7 6.1 0.00 0.00 0.00 81 1010.6
20260505035103 53 121 3.5 6.1 0.00 0.00 0.00 81 1010.6
20260505034559 53 152 4.3 6.1 0.00 0.00 0.00 80 1010.6
20260505034056 53 190 5.2 13.0 0.00 0.00 0.00 80 1010.5
20260505033553 53 239 4.3 6.1 0.00 0.00 0.00 80 1010.8
20260505033052 53 233 1.7 12.2 0.00 0.00 0.00 80 1010.8
20260505032549 53 119 5.2 8.7 0.00 0.00 0.00 80 1010.5
20260505032045 53 111 3.5 6.1 0.00 0.00 0.00 79 1010.5
20260505031542 53 127 3.5 7.8 0.00 0.00 0.00 79 1010.9
20260505031039 53 141 7.0 13.0 0.00 0.00 0.00 79 1010.7
20260505030536 53 134 6.1 7.0 0.00 0.00 0.00 79 1011.0
20260505030032 53 175 6.1 9.6 0.00 0.00 0.00 79 1010.8
20260505025528 53 23 1.7 12.2 0.00 0.00 0.00 78 1010.8
20260505025027 53 173 2.6 7.8 0.00 0.00 0.00 78 1010.7
20260505024523 53 173 1.7 7.8 0.00 0.00 0.00 78 1010.8
20260505024020 53 90 1.7 6.1 0.00 0.00 0.00 78 1010.8
20260505023517 54 96 7.8 7.8 0.00 0.00 0.00 77 1010.7
20260505023015 54 208 2.6 7.8 0.00 0.00 0.00 77 1010.7
20260505022513 54 219 6.1 9.6 0.00 0.00 0.00 77 1010.6
20260505022010 54 163 3.5 11.3 0.00 0.00 0.00 77 1010.6
20260505021506 54 190 2.6 7.8 0.00 0.00 0.00 76 1010.8
20260505021002 54 122 6.1 9.6 0.00 0.00 0.00 76 1010.9
20260505020457 54 74 1.7 6.1 0.00 0.00 0.00 75 1010.7
20260505015954 54 121 1.7 6.1 0.00 0.00 0.00 75 1010.8
20260505015451 54 140 1.7 7.8 0.00 0.00 0.00 75 1010.5
20260505014948 55 120 5.2 13.0 0.00 0.00 0.00 74 1010.7
20260505014445 55 129 6.1 13.0 0.00 0.00 0.00 73 1010.7
20260505013942 55 113 7.8 9.6 0.00 0.00 0.00 73 1010.7
20260505013439 55 157 1.7 9.6 0.00 0.00 0.00 72 1010.7
20260505012937 55 125 5.2 8.7 0.00 0.00 0.00 72 1010.5
20260505012435 55 269 7.0 13.0 0.00 0.00 0.00 71 1010.5
20260505011931 55 151 3.5 7.8 0.00 0.00 0.00 71 1010.4
20260505011427 55 241 2.6 5.2 0.00 0.00 0.00 70 1010.3
20260505010924 55 138 4.3 13.0 0.00 0.00 0.00 70 1010.3
20260505010420 56 324 4.3 4.3 0.00 0.00 0.00 69 1010.2
20260505005916 56 276 3.5 9.6 0.00 0.00 0.00 69 1010.1
20260505005413 56 157 3.5 9.6 0.00 0.00 0.00 68 1009.9
20260505004911 56 150 4.3 11.3 0.00 0.00 0.00 67 1009.9
20260505004407 56 201 7.0 10.4 0.00 0.00 0.00 66 1009.8
20260505003904 57 114 2.6 13.9 0.00 0.00 0.00 65 1009.7
20260505003401 57 159 7.8 15.6 0.00 0.00 0.00 63 1009.5
20260505002857 57 136 4.3 10.4 0.00 0.00 0.00 62 1009.6
20260505002354 57 204 4.3 13.0 0.00 0.00 0.00 61 1009.3
20260505001853 58 154 4.3 11.3 0.00 0.00 0.00 61 1009.1
20260505001349 58 136 3.5 9.6 0.00 0.00 0.00 60 1009.1
20260505000847 58 187 4.3 8.7 0.00 0.00 0.00 60 1009.0
20260505000344 58 218 0.0 12.2 0.00 0.00 0.00 60 1008.8
20260504235841 58 37 2.6 9.6 0.00 0.00 0.00 59 1008.9
20260504235338 59 248 7.0 14.8 0.00 0.00 0.00 58 1008.8
20260504234834 59 128 5.2 16.5 0.00 0.00 0.00 57 1008.7
20260504234332 59 187 6.1 13.0 0.00 0.00 0.00 57 1008.8
20260504233828 59 166 12.2 20.9 0.00 0.00 0.00 56 1008.6
20260504233324 60 265 3.5 4.3 0.00 0.00 0.00 55 1008.6
20260504232821 60 141 8.7 13.9 0.00 0.00 0.00 54 1008.4
20260504232318 61 197 7.0 10.4 0.00 0.00 0.00 53 1008.5
20260504231815 61 154 7.0 16.5 0.00 0.00 0.00 52 1008.3
20260504231312 62 145 7.0 9.6 0.00 0.00 0.00 52 1008.2
20260504230808 62 156 7.0 16.5 0.00 0.00 0.00 51 1008.1
20260504230306 63 169 5.2 11.3 0.00 0.00 0.00 50 1008.0
20260504225804 63 137 4.3 4.3 0.00 0.00 0.00 50 1007.9
20260504225300 63 199 1.7 7.8 0.00 0.00 0.00 50 1007.7
20260504224757 64 182 6.1 11.3 0.00 0.00 0.00 49 1007.8
20260504224255 64 196 4.3 13.0 0.00 0.00 0.00 49 1007.7
20260504223751 65 155 5.2 7.0 0.00 0.00 0.00 48 1007.5
20260504223247 65 225 11.3 18.2 0.00 0.00 0.00 48 1007.6
20260504222744 65 148 14.8 21.7 0.00 0.00 0.00 48 1007.6
20260504222240 65 227 0.0 19.1 0.00 0.00 0.00 48 1007.4
20260504221738 65 160 5.2 15.6 0.00 0.00 0.00 47 1007.5
20260504221235 65 170 7.8 20.9 0.00 0.00 0.00 47 1007.1
20260504220731 66 160 9.6 25.2 0.00 0.00 0.00 47 1007.3
20260504220229 66 152 7.8 13.9 0.00 0.00 0.00 46 1007.3
20260504215726 67 132 18.2 24.3 0.00 0.00 0.00 45 1007.2
20260504215223 67 165 3.5 10.4 0.00 0.00 0.00 46 1007.5
20260504214718 66 126 13.0 16.5 0.00 0.00 0.00 45 1007.5
20260504214215 67 136 7.8 13.0 0.00 0.00 0.00 46 1007.3
20260504213712 67 227 7.0 14.8 0.00 0.00 0.00 45 1007.4
20260504213208 66 178 7.8 16.5 0.00 0.00 0.00 45 1007.2
20260504212705 67 156 3.5 14.8 0.00 0.00 0.00 45 1007.0
20260504212202 67 146 2.6 14.8 0.00 0.00 0.00 43 1007.2
20260504211659 68 172 17.4 20.9 0.00 0.00 0.00 43 1007.4
20260504211155 67 122 6.1 15.6 0.00 0.00 0.00 43 1007.0
20260504210653 67 161 7.8 20.9 0.00 0.00 0.00 44 1007.1
20260504210149 67 140 15.6 18.2 0.00 0.00 0.00 43 1007.2
20260504205647 68 133 5.2 13.0 0.00 0.00 0.00 42 1007.0
20260504205144 67 185 16.5 21.7 0.00 0.00 0.00 42 1007.2
20260504204643 68 166 9.6 21.7 0.00 0.00 0.00 42 1007.1
20260504204141 68 150 7.8 13.9 0.00 0.00 0.00 42 1007.2
20260504203640 68 149 3.5 13.0 0.00 0.00 0.00 42 1007.1
20260504203137 68 199 10.4 20.9 0.00 0.00 0.00 41 1006.9
20260504202637 68 230 13.0 20.0 0.00 0.00 0.00 42 1007.1
20260504202134 68 124 10.4 17.4 0.00 0.00 0.00 42 1007.0
20260504201631 69 155 8.7 20.0 0.00 0.00 0.00 40 1007.1
20260504201129 69 164 3.5 7.8 0.00 0.00 0.00 43 1007.0
20260504200626 69 201 6.1 18.2 0.00 0.00 0.00 40 1007.0
20260504200122 70 127 13.0 13.0 0.00 0.00 0.00 38 1007.2
20260504195618 71 158 7.0 12.2 0.00 0.00 0.00 37 1007.0
20260504195114 71 135 7.0 16.5 0.00 0.00 0.00 35 1006.9
20260504194611 71 286 4.3 10.4 0.00 0.00 0.00 35 1006.9
20260504194107 71 233 10.4 18.2 0.00 0.00 0.00 34 1007.0
20260504193603 71 181 7.0 14.8 0.00 0.00 0.00 35 1007.1
20260504193102 71 172 4.3 22.6 0.00 0.00 0.00 33 1007.0
20260504192600 72 203 11.3 11.3 0.00 0.00 0.00 33 1006.9
20260504192058 70 234 9.6 13.0 0.00 0.00 0.00 34 1007.2
20260504191556 71 311 4.3 20.9 0.00 0.00 0.00 33 1007.0
20260504191051 72 148 6.1 13.0 0.00 0.00 0.00 36 1006.9
20260504190548 72 87 4.3 13.0 0.00 0.00 0.00 36 1006.9
20260504190044 71 330 1.7 14.8 0.00 0.00 0.00 34 1007.1
20260504185541 71 72 2.6 9.6 0.00 0.00 0.00 33 1007.1
20260504185038 71 213 11.3 18.2 0.00 0.00 0.00 34 1007.1
20260504184533 71 225 7.8 20.0 0.00 0.00 0.00 33 1007.1
20260504184029 71 193 4.3 16.5 0.00 0.00 0.00 33 1007.2
20260504183526 71 111 3.5 11.3 0.00 0.00 0.00 36 1007.2
20260504183024 70 210 7.8 17.4 0.00 0.00 0.00 33 1007.3
20260504182521 70 109 9.6 10.4 0.00 0.00 0.00 36 1007.2
20260504182018 70 210 9.6 14.8 0.00 0.00 0.00 34 1007.4
20260504181515 70 340 1.7 13.0 0.00 0.00 0.00 36 1007.3
20260504181014 70 235 9.6 15.6 0.00 0.00 0.00 35 1007.5
20260504180512 71 188 8.7 17.4 0.00 0.00 0.00 35 1007.5
20260504180010 70 223 3.5 11.3 0.00 0.00 0.00 35 1007.4
20260504175507 69 168 5.2 17.4 0.00 0.00 0.00 34 1007.5
20260504175004 69 141 5.2 13.9 0.00 0.00 0.00 35 1007.5
20260504174502 69 176 5.2 15.6 0.00 0.00 0.00 35 1007.4
20260504173959 69 204 10.4 15.6 0.00 0.00 0.00 34 1007.2
20260504173455 69 27 4.3 22.6 0.00 0.00 0.00 34 1007.5
20260504172953 70 204 7.8 16.5 0.00 0.00 0.00 33 1007.3
20260504172448 69 293 6.1 18.2 0.00 0.00 0.00 35 1007.6
20260504171945 69 293 6.1 13.9 0.00 0.00 0.00 34 1007.4
20260504171443 70 145 5.2 14.8 0.00 0.00 0.00 36 1007.5
20260504170939 69 10 3.5 13.9 0.00 0.00 0.00 35 1007.6
20260504170436 69 243 10.4 18.2 0.00 0.00 0.00 34 1007.4
20260504160355 68 288 4.3 13.0 0.00 0.00 0.00 37 1008.5
20260504150820 66 184 0.0 16.5 0.00 0.00 0.00 39 1008.8
20260504150316 66 299 5.2 14.8 0.00 0.00 0.00 39 1008.9
20260504141246 64 351 5.2 13.9 0.00 0.00 0.00 42 1009.4
20260504140742 64 184 2.6 13.9 0.00 0.00 0.00 41 1009.5
20260504140238 63 282 3.5 13.0 0.00 0.00 0.00 42 1009.7
20260504130707 59 155 4.3 8.7 0.00 0.00 0.00 46 1010.1
20260504130203 58 305 5.2 13.0 0.00 0.00 0.00 47 1010.2
20260504120127 52 109 3.5 9.6 0.00 0.00 0.00 56 1010.3
20260504110554 47 94 0.0 5.2 0.00 0.00 0.00 62 1010.6
20260504100516 45 56 0.0 1.7 0.00 0.00 0.00 63 1010.5